| time (UTC) | temp C | wind direction | speed KPH | gust KPH | rain 1hr cm | rain 24hr cm | rain mn cm | humidity % | barometer mb |
| 20260504035209 | 15 | 205 | 4.8 | 12.9 | 0.00 | 0.00 | 0.00 | 40 | 995.1 |
| 20260504034208 | 15 | 241 | 6.4 | 19.3 | 0.00 | 0.00 | 0.00 | 39 | 995.3 |
| 20260504033228 | 15 | 219 | 4.8 | 20.9 | 0.00 | 0.00 | 0.00 | 40 | 995.8 |
| 20260504032208 | 15 | 228 | 8.0 | 16.1 | 0.00 | 0.00 | 0.00 | 39 | 996.0 |
| 20260504031208 | 15 | 217 | 4.8 | 9.7 | 0.00 | 0.00 | 0.00 | 40 | 996.2 |
| 20260504030208 | 15 | 208 | 8.0 | 12.9 | 0.00 | 0.00 | 0.00 | 40 | 996.5 |
| 20260504025208 | 15 | 237 | 0.0 | 4.8 | 0.00 | 0.00 | 0.00 | 40 | 996.7 |
| 20260504024208 | 15 | 204 | 4.8 | 9.7 | 0.00 | 0.00 | 0.00 | 40 | 996.9 |
| 20260504023208 | 15 | 223 | 4.8 | 11.3 | 0.00 | 0.00 | 0.00 | 40 | 997.2 |
| 20260504022209 | 16 | 202 | 0.0 | 3.2 | 0.00 | 0.00 | 0.00 | 40 | 997.4 |
| 20260504021208 | 16 | 201 | 1.6 | 9.7 | 0.00 | 0.00 | 0.00 | 39 | 997.6 |
| 20260504020229 | 16 | 208 | 3.2 | 9.7 | 0.00 | 0.00 | 0.00 | 39 | 997.8 |
| 20260504015208 | 16 | 209 | 3.2 | 9.7 | 0.00 | 0.00 | 0.00 | 39 | 998.0 |
| 20260504014208 | 16 | 203 | 1.6 | 11.3 | 0.00 | 0.00 | 0.00 | 38 | 998.2 |
| 20260504013208 | 17 | 232 | 3.2 | 8.0 | 0.00 | 0.00 | 0.00 | 36 | 998.5 |
| 20260504012209 | 17 | 219 | 3.2 | 9.7 | 0.00 | 0.00 | 0.00 | 35 | 998.7 |
| 20260504011208 | 17 | 232 | 3.2 | 12.9 | 0.00 | 0.00 | 0.00 | 34 | 998.8 |
| 20260504010248 | 18 | 214 | 4.8 | 12.9 | 0.00 | 0.00 | 0.00 | 33 | 999.1 |
| 20260504005208 | 18 | 248 | 3.2 | 12.9 | 0.00 | 0.00 | 0.00 | 33 | 999.4 |
| 20260504004208 | 18 | 239 | 1.6 | 11.3 | 0.00 | 0.00 | 0.00 | 33 | 999.6 |
| 20260504003248 | 18 | 227 | 1.6 | 9.7 | 0.00 | 0.00 | 0.00 | 32 | 999.8 |
| 20260504002229 | 18 | 242 | 3.2 | 9.7 | 0.00 | 0.00 | 0.00 | 32 | 999.9 |
| 20260504001208 | 18 | 265 | 6.4 | 19.3 | 0.00 | 0.00 | 0.00 | 31 | 1000.0 |
| 20260504000208 | 19 | 243 | 3.2 | 12.9 | 0.00 | 0.00 | 0.00 | 31 | 1000.2 |
| 20260503235208 | 19 | 254 | 3.2 | 8.0 | 0.00 | 0.00 | 0.00 | 30 | 1000.4 |
| 20260503234208 | 19 | 263 | 6.4 | 11.3 | 0.00 | 0.00 | 0.00 | 29 | 1000.7 |
| 20260503233208 | 19 | 220 | 3.2 | 17.7 | 0.00 | 0.00 | 0.00 | 30 | 1001.0 |
| 20260503232208 | 20 | 254 | 4.8 | 12.9 | 0.00 | 0.00 | 0.00 | 28 | 1001.2 |
| 20260503231209 | 20 | 278 | 3.2 | 8.0 | 0.00 | 0.00 | 0.00 | 28 | 1001.5 |
| 20260503230208 | 20 | 246 | 3.2 | 9.7 | 0.00 | 0.00 | 0.00 | 27 | 1001.8 |
| 20260503225208 | 20 | 264 | 3.2 | 9.7 | 0.00 | 0.00 | 0.00 | 28 | 1002.0 |
| 20260503224208 | 20 | 241 | 4.8 | 12.9 | 0.00 | 0.00 | 0.00 | 28 | 1002.1 |
| 20260503223208 | 20 | 307 | 3.2 | 8.0 | 0.00 | 0.00 | 0.00 | 28 | 1002.2 |
| 20260503222222 | 20 | 318 | 0.0 | 6.4 | 0.00 | 0.00 | 0.00 | 27 | 1002.4 |
| 20260503221220 | 21 | 239 | 4.8 | 14.5 | 0.00 | 0.00 | 0.00 | 24 | 1002.6 |
| 20260503220224 | 21 | 330 | 9.7 | 25.7 | 0.00 | 0.00 | 0.00 | 22 | 1002.8 |
| 20260503215208 | 21 | 17 | 1.6 | 9.7 | 0.00 | 0.00 | 0.00 | 24 | 1003.0 |
| 20260503214208 | 21 | 268 | 3.2 | 12.9 | 0.00 | 0.00 | 0.00 | 24 | 1003.2 |
| 20260503213222 | 20 | 275 | 4.8 | 11.3 | 0.00 | 0.00 | 0.00 | 24 | 1003.4 |
| 20260503212208 | 19 | 263 | 6.4 | 14.5 | 0.00 | 0.00 | 0.00 | 26 | 1003.7 |
| 20260503211211 | 20 | 267 | 6.4 | 16.1 | 0.00 | 0.00 | 0.00 | 26 | 1003.9 |
| 20260503210228 | 20 | 326 | 3.2 | 9.7 | 0.00 | 0.00 | 0.00 | 25 | 1004.1 |
| 20260503205228 | 21 | 319 | 6.4 | 16.1 | 0.00 | 0.00 | 0.00 | 25 | 1004.2 |
| 20260503204208 | 20 | 276 | 4.8 | 12.9 | 0.00 | 0.00 | 0.00 | 26 | 1004.3 |
| 20260503203208 | 20 | 248 | 9.7 | 16.1 | 0.00 | 0.00 | 0.00 | 26 | 1004.5 |
| 20260503202228 | 20 | 338 | 6.4 | 12.9 | 0.00 | 0.00 | 0.00 | 27 | 1004.6 |
| 20260503201208 | 20 | 357 | 4.8 | 11.3 | 0.00 | 0.00 | 0.00 | 25 | 1004.8 |
| 20260503200211 | 20 | 304 | 8.0 | 17.7 | 0.00 | 0.00 | 0.00 | 26 | 1005.0 |
| 20260503195212 | 20 | 329 | 4.8 | 9.7 | 0.00 | 0.00 | 0.00 | 27 | 1005.3 |
| 20260503194209 | 20 | 340 | 11.3 | 24.1 | 0.00 | 0.00 | 0.00 | 25 | 1005.4 |
| 20260503193209 | 20 | 275 | 4.8 | 11.3 | 0.00 | 0.00 | 0.00 | 27 | 1005.6 |
| 20260503192209 | 19 | 330 | 11.3 | 30.6 | 0.00 | 0.00 | 0.00 | 26 | 1005.9 |
| 20260503191208 | 19 | 331 | 4.8 | 11.3 | 0.00 | 0.00 | 0.00 | 26 | 1006.2 |
| 20260503190229 | 19 | 316 | 6.4 | 12.9 | 0.00 | 0.00 | 0.00 | 28 | 1006.3 |
| 20260503185248 | 18 | 323 | 4.8 | 16.1 | 0.00 | 0.00 | 0.00 | 29 | 1006.5 |
| 20260503184209 | 18 | 359 | 6.4 | 9.7 | 0.00 | 0.00 | 0.00 | 28 | 1006.8 |
| 20260503183211 | 18 | 317 | 3.2 | 11.3 | 0.00 | 0.00 | 0.00 | 28 | 1007.0 |
| 20260503182210 | 18 | 336 | 11.3 | 17.7 | 0.00 | 0.00 | 0.00 | 28 | 1007.0 |
| 20260503181209 | 18 | 328 | 4.8 | 12.9 | 0.00 | 0.00 | 0.00 | 28 | 1007.4 |
| 20260503180210 | 18 | 302 | 8.0 | 14.5 | 0.00 | 0.00 | 0.00 | 28 | 1007.4 |
| 20260503175213 | 17 | 7 | 1.6 | 4.8 | 0.00 | 0.00 | 0.00 | 31 | 1007.6 |
| 20260503174231 | 17 | 286 | 8.0 | 20.9 | 0.00 | 0.00 | 0.00 | 31 | 1007.9 |
| 20260503173229 | 17 | 316 | 8.0 | 14.5 | 0.00 | 0.00 | 0.00 | 31 | 1008.0 |
| 20260503172229 | 17 | 332 | 8.0 | 17.7 | 0.00 | 0.00 | 0.00 | 33 | 1008.2 |
| 20260503171208 | 17 | 305 | 6.4 | 16.1 | 0.00 | 0.00 | 0.00 | 32 | 1008.4 |
| 20260503170208 | 17 | 310 | 4.8 | 24.1 | 0.00 | 0.00 | 0.00 | 34 | 1008.6 |
| 20260503160208 | 14 | 341 | 9.7 | 22.5 | 0.00 | 0.00 | 0.00 | 35 | 1009.0 |
| 20260503150229 | 12 | 9 | 9.7 | 20.9 | 0.00 | 0.00 | 0.00 | 38 | 1009.0 |
| 20260503140208 | 10 | 5 | 14.5 | 27.4 | 0.00 | 0.00 | 0.00 | 46 | 1009.1 |
| 20260503131209 | 8 | 1 | 3.2 | 11.3 | 0.00 | 0.00 | 0.00 | 56 | 1008.9 |
| 20260503130208 | 8 | 6 | 9.7 | 16.1 | 0.00 | 0.00 | 0.00 | 58 | 1008.8 |
| 20260503120208 | 6 | 358 | 1.6 | 8.0 | 0.00 | 0.00 | 0.00 | 73 | 1008.1 |
| 20260503110248 | 5 | 351 | 6.4 | 11.3 | 0.00 | 0.00 | 0.00 | 82 | 1007.8 |
| 20260503100208 | 4 | 0.0 | 0.0 | 0.00 | 0.00 | 0.00 | 95 | 1007.2 | |
| 20260503090208 | 3 | 0.0 | 0.0 | 0.00 | 0.00 | 0.00 | 100 | 1007.2 | |
| 20260503081208 | 4 | 0.0 | 0.0 | 0.00 | 0.00 | 0.00 | 100 | 1007.1 | |
| 20260503080208 | 3 | 0.0 | 0.0 | 0.00 | 0.00 | 0.00 | 99 | 1007.0 | |
| 20260503072207 | 4 | 0.0 | 0.0 | 0.00 | 0.00 | 0.00 | 95 | 1007.0 | |
| 20260503071208 | 5 | 0.0 | 0.0 | 0.00 | 0.00 | 0.00 | 94 | 1007.1 | |
| 20260503070228 | 5 | 0.0 | 0.0 | 0.00 | 0.00 | 0.00 | 93 | 1007.2 | |
| 20260503060228 | 7 | 0.0 | 0.0 | 0.00 | 0.00 | 0.00 | 83 | 1007.6 | |
| 20260503054207 | 8 | 0.0 | 0.0 | 0.00 | 0.00 | 0.00 | 81 | 1007.5 | |
| 20260503053208 | 9 | 0.0 | 0.0 | 0.00 | 0.00 | 0.00 | 79 | 1007.6 | |
| 20260503052208 | 10 | 0.0 | 0.0 | 0.00 | 0.00 | 0.00 | 78 | 1007.7 | |
| 20260503051208 | 10 | 0.0 | 0.0 | 0.00 | 0.00 | 0.00 | 78 | 1007.7 | |
| 20260503050208 | 10 | 0.0 | 0.0 | 0.00 | 0.00 | 0.00 | 77 | 1007.6 | |
| 20260503045208 | 10 | 0.0 | 0.0 | 0.00 | 0.00 | 0.00 | 75 | 1007.8 | |
| 20260503044208 | 10 | 0.0 | 0.0 | 0.00 | 0.00 | 0.00 | 73 | 1007.6 | |
| 20260503043208 | 11 | 0.0 | 0.0 | 0.00 | 0.00 | 0.00 | 71 | 1007.5 | |
| 20260503042208 | 11 | 0.0 | 0.0 | 0.00 | 0.00 | 0.00 | 68 | 1007.5 | |
| 20260503041228 | 11 | 53 | 1.6 | 8.0 | 0.00 | 0.00 | 0.00 | 65 | 1007.4 |
| 20260503040209 | 11 | 0.0 | 0.0 | 0.00 | 0.00 | 0.00 | 63 | 1007.5 |